STARLINK-37067, 68086

Orbit data source: Space-Track

STARLINK-37067, 68086 is a payload satellite owned by SpaceX/Seattle (US) in LEO that was launched on Wed, 04 Mar 2026 UTC via an FALCON 9 launch vehicle from the Air Force Eastern Test Range (AFETR). Payload-class satellites include a variety of spacecraft equipped with specific instruments for various scientific and technological missions. These include communications satellites like Starlink; space stations such as the ISS; scientific satellites like the Hubble; Earth observation satellites from companies like Planet Labs, Umbra, and HawkEye 360; GPS; miniature CubeSats for education and research; and military/defense satellites.

Loading next visibility...
Identifier
68086, 2026-042T
Orbit
LEO
Country
Flag of USUS
Related business
Manufacturer
SpaceX/Seattle
Mission
Operational spacecraft
Bus & Motor
STARLINK V2MO, Unknown motor
Mass
575 kg wet, ~530 kg dry
Launch date (UTC)
2026-03-04 (1 month ago)
Launch vehicle
FALCON 9
Launch site
Air Force Eastern Test Range (AFETR)
Object type
Payload
Rocket body
Debris
Shape & HBR
Unknown shape, 17.7 m
Radar Cross Section
RCS unknown

Expand to show TLE details & history
Last TLE update: 9 hours ago

TLE from 9 hours ago
0 STARLINK-37067
1 68086U 26042T   26102.16519396  .00125454  00000-0  80984-3 0  9996
2 68086  53.1587  27.3083 0001828  79.7654 280.3572 15.75256343  7374
Epoch: 2026-04-12T03:57Z
TLE epoch observation values (Epoch: 2026-04-12T03:57:52.758Z)
Latitude
-0.00004°
Longitude
127.46438°
Altitude
344.598 km
Speed
7.703 km/s
True Right ascension
01h 49m 13s
True Declination
0° 00' 00"
Sunlit
Object was in daylight at epoch
Visualization orbit readout
Latitude
Unknown
Longitude
Unknown
Altitude
Unknown
Speed
Unknown
Apparent Right ascension
Unknown
Apparent Declination
Unknown
Sunlit
N/A
Visualization observer readout
Local Sidereal Time
19:47:15
Azimuth
Unknown
Elevation
Unknown
Doppler factor
Unknown
Orbital elements
Apogee altitude
345.392 km
Perigee altitude
342.934 km
Semi-major axis
6,722.3 km
Eccentricity
0.00018
Inclination
53.1587°
RAAN
27.3083°
Arg. of periapsis
79.7654°
True anomaly
280.33659°
Mean anomaly
280.3572°
Eccentric anomaly
280.3469°
Mean motion
3.93791 °/min
Orbital period
91.42 mins
BSTAR
0.00080984
Loading maneuver chart data...
Computing Atmospheric mass density...
Loading historical data...
Loading historical data...
Loading historical data...
Loading historical data...
Loading historical data...
Loading historical data...
Loading historical data...

Documentation

Showing up to 5 results
|